sat.trackr.live / text

‹ back to catalog

ONEWEB-0385

NORAD 49311 · 2021-090AJ

PAYLOAD ACTIVE UNKNOWN

§ Identity

Operator
Country
UK
Launch date
2021-10-14
Launch site
VOSTO
Launch vehicle
Mass (kg)
RCS (m²)

Purposes: comms

External: N2YO · Heavens-Above · Gunter

§ Orbital elements

Epoch: 2026-09-13T00:23:55.108320Z

Period
109.03 min
Inclination
87.9136°
Eccentricity
0.0002095
Mean motion
13.20770445 rev/d
Perigee alt
1,180.2 km
Apogee alt
1,183.4 km
Semi-major
7,559.9 km
B*
1.9275e-4
RAAN
256.9193°
Arg perigee
92.7709°
Mean anomaly
267.3664°
Rev number
24,139

§ Raw data

ONEWEB-03851 49311U 21090AJ  26256.01661005  .00000091  00000+0  19275-3 0  99962 49311  87.9136 256.9193 0002095  92.7709 267.3664 13.20770445241395

JSON: /api/v1/satellites/49311 · /tle

For live sub-satellite position, see the globe view (requires WebGL).

§ Visibility from observer

Set your observer location to see the next 7 days of passes ≥ 10°. The values pass through the URL so the page stays shareable.

No JS? Fill the form by hand. The geolocation button needs JavaScript.